Volver al catálogo

STARLINK-36251

ActivoComunicacionesVLEO
NORAD 68093·PAYLOAD·🇺🇸 United States

Lanzado Mar 4, 2026 desde Vandenberg Space Force Base

Loading…

Próximos Pases (próximas 24 horas)

TLE

ActualizadoSource: CelesTrak SupGP

Época: Sep 14, 2026, 21:28 UTC

1 68093C 26042AA  26257.89493056  .00010619  00000+0  31390-3 0  2578
2 68093  53.1606  15.8893 0001212  82.7566 132.2265 15.34368770    19

Sigue STARLINK-36251 en tiempo real con AllMySat

Download on the App Store